[[{"header":{"parameterUnit":"m.s-1","parameterCategory":1,"la1":30.2991,"la2":30.254,"lo1":-89.0895,"lo2":-89.0444,"dy":0.0017,"dx":0.0017,"nx":28,"ny":28,"refTime":"2025-12-25T03:00:00:Z","depth":0,"parameterNumber":2,"parameterNumberName":"U-component_of_WINDS"},"data":[0,0,0,0,0,0,0,0,0,0,0,0,0,0,0,0,0,0,0,0,0,0,0,0,0,0,0,0,0,0,0,0,0,0,0,0,0,0,0,0,0,0,0,0,0,0,0,0,0,0,0,0,0,0,0,0,0,0,-0.0311,-0.031,0,-0.0164,-0.0163,-0.0161,-0.0121,-0.0122,-0.0123,-0.0124,0.0033,0.0038,0.0043,0,0,0,0,0,0,0,0,0,0,0,0,0,-0.0552,-0.0547,-0.0312,-0.031,-0.0308,-0.0165,-0.0163,-0.0161,-0.0121,-0.0122,-0.0123,-0.0124,0.0031,0.0037,0.0043,0,0,0,0,0,0,0,0,0,0,0,0,0,-0.043,-0.0546,-0.0312,-0.0271,-0.0266,-0.0165,-0.0163,-0.016,-0.0121,-0.0122,-0.0123,-0.0124,0.0029,0.0037,0.0044,0.0116,0,0,0.0067,0.007,0,0,0,0,0,0,0,0,-0.0437,-0.0421,-0.0279,-0.0274,-0.0268,-0.0163,-0.019,-0.0067,-0.012,-0.0176,-0.0124,-0.0125,-0.0031,-0.0018,0.0012,0.0124,0.013,0.0068,0.0072,0.0075,0.0077,0,0,0,0,0,0,0,-0.0445,-0.0427,-0.0253,-0.0277,-0.027,-0.0258,-0.0242,-0.0166,-0.0097,-0.0171,-0.0168,-0.0151,-0.0028,0.0005,0.0016,0.0133,0.0067,0.0074,0.0079,0.0082,0.0314,0.0316,0,0,0,0,0,0,-0.0462,-0.0435,-0.0258,-0.0249,-0.0358,-0.0252,-0.0235,-0.0195,-0.0098,-0.0085,-0.015,-0.015,-0.0007,0.0008,0.0022,0.0116,0.0075,0.0082,0.0087,0.0312,0.0315,0.0316,0,0,0,0,0,0,-0.0467,-0.0446,-0.0264,-0.0341,-0.0317,-0.0247,-0.0202,-0.0191,-0.0158,-0.0083,-0.0069,-0.013,-0.0007,0.0012,0.0093,0.0122,0.0086,0.0092,0.031,0.0313,0.0315,0.0302,0,0,0,0,0,0,-0.0474,-0.0449,-0.0422,-0.0341,-0.0313,-0.0197,-0.0201,-0.0187,-0.0146,-0.0144,-0.006,-0.0047,-0.0007,0.0082,0.01,0.0131,0.0098,0.0308,0.0312,0.0315,0.03,0.0304,0.0307,0,0,0,0,0,-0.0483,-0.0431,-0.0421,-0.04,-0.0278,-0.0196,-0.018,-0.0137,-0.0144,-0.0115,-0.0067,-0.005,0.0115,0.009,0.0111,0.0145,0.0307,0.0311,0.0314,0.0299,0.0303,0.0307,0,0,0,0,0,0,-0.0509,-0.042,-0.0407,-0.0328,-0.027,-0.0189,-0.0152,-0.0134,-0.0071,-0.0071,-0.0019,-0.0,0.0079,0.0119,0.009,0.0221,0.0211,0.022,0.0192,0.0197,0.02,0.019,0.0105,0,0,0,0,0,-0.0506,-0.0449,-0.0373,-0.031,-0.0282,-0.0222,-0.0185,-0.0156,-0.0093,-0.0068,-0.0013,0.0049,0.0115,0.0158,0.0222,0.0305,0.0327,0.0339,0.0342,0.0345,0.0353,0.0403,0.0411,0.0329,0.0329,0.0329,0,0,-0.0498,-0.0442,-0.0409,-0.0314,-0.0265,-0.0204,-0.0201,-0.0138,-0.0091,-0.0058,0.0023,0.0065,0.0138,0.0222,0.0261,0.0258,0.0379,0.035,0.0351,0.0358,0.0408,0.0415,0.0422,0.0332,0.0331,0.0331,0,0,-0.0452,-0.0406,-0.0347,-0.0299,-0.0226,-0.0187,-0.0173,-0.0095,-0.0065,0.0015,0.0043,0.01,0.0211,0.0263,0.0304,0.037,0.039,0.039,0.0408,0.0457,0.0463,0.0469,0.0496,0.0505,0.0396,0.0396,0.0396,0,-0.0451,-0.036,-0.0318,-0.0255,-0.0213,-0.0182,-0.012,-0.0075,0.0015,0.0045,0.004,0.0182,0.0233,0.0331,0.0347,0.0377,0.0398,0.0382,0.0458,0.0465,0.0471,0.0498,0.0507,0.0396,0.0396,0.0396,0.0396,0,-0.036,-0.0298,-0.0258,-0.0173,-0.0126,-0.0065,-0.0011,0.0031,0.0055,0.0096,0.018,0.0242,0.0321,0.0345,0.037,0.0447,0.0444,0.0447,0.0439,0.0478,0.0504,0.0514,0.0396,0.0396,0.0396,0.0396,0,0,-0.0325,-0.0217,-0.0203,-0.0163,-0.0081,-0.003,0.0034,0.011,0.0147,0.0208,0.0266,0.0359,0.0364,0.041,0.0441,0.0483,0.0536,0.0482,0.0485,0.0493,0.0629,0.0628,0.0639,0.0547,0.0549,0.0551,0.0624,0,-0.0266,-0.0151,-0.0111,-0.0016,0.0045,0.0075,0.0132,0.019,0.0229,0.0288,0.0333,0.04,0.0398,0.0427,0.047,0.052,0.0564,0.0515,0.0605,0.0608,0.059,0.0652,0.0652,0.0718,0.0634,0.0636,0.0637,0,-0.0181,-0.0119,-0.0018,0.0059,0.0086,0.0135,0.0209,0.0264,0.0331,0.0357,0.0409,0.0437,0.0508,0.0492,0.0593,0.0559,0.0598,0.0628,0.0632,0.0645,0.0627,0.0671,0.074,0.0751,0.0653,0.0652,0.0651,0,-0.0161,-0.0053,0.0023,0.0056,0.0146,0.0181,0.0221,0.0286,0.033,0.0395,0.0424,0.0497,0.0538,0.0594,0.0642,0.0625,0.074,0.0727,0.0767,0.0766,0.0793,0.0791,0.0873,0.0811,0.0811,0.0811,0.0811,0,-0.0097,-0.0035,0.0033,0.008,0.0151,0.0197,0.0267,0.0308,0.0367,0.0424,0.0454,0.0508,0.0565,0.0627,0.0665,0.0745,0.0762,0.0788,0.0798,0.0788,0.0785,0.0817,0.0815,0.0814,0.0813,0.0812,0.0812,0,-0.0061,-0.0013,0.0072,0.015,0.0171,0.022,0.0289,0.0337,0.0377,0.045,0.0469,0.0534,0.0609,0.066,0.0757,0.0782,0.087,0.0877,0.0847,0.0853,0.0891,0.0888,0.0999,0.1017,0.0939,0.094,0.0941,0,-0.0021,0.0027,0.011,0.015,0.0189,0.0253,0.0298,0.0344,0.039,0.0471,0.051,0.0586,0.065,0.0769,0.0826,0.09,0.0912,0.0946,0.0924,0.0913,0.0918,0.0916,0.0923,0.0951,0.0951,0.0952,0.0952,0,0.0045,0.0066,0.0128,0.02,0.0252,0.031,0.0369,0.0401,0.0458,0.0508,0.0584,0.0634,0.0732,0.0809,0.0888,0.0932,0.0954,0.0958,0.0972,0.0964,0.0946,0.096,0.0861,0.0956,0.0956,0.0955,0.0955,0.0955,0.0087,0.0132,0.0198,0.0268,0.0316,0.0371,0.0421,0.0467,0.0531,0.0613,0.0637,0.0717,0.0786,0.0895,0.0939,0.1005,0.1003,0.1022,0.1027,0.1032,0.1034,0.0932,0.1019,0.1019,0.1019,0.1019,0.1019,0,0.0158,0.0202,0.0265,0.0346,0.0401,0.0413,0.0479,0.0525,0.0595,0.0656,0.0718,0.0807,0.0881,0.0944,0.1022,0.1062,0.1074,0.1082,0.1082,0.1092,0.103,0.1012,0.1071,0.1071,0.1071,0.1071,0.1071,0.1071,0.0202,0.0281,0.031,0.0414,0.0458,0.0536,0.0573,0.0625,0.0674,0.0772,0.0833,0.0873,0.0936,0.1018,0.1089,0.1105,0.1135,0.1141,0.116,0.1102,0.1096,0.109,0.1074,0.1145,0.1146,0.1218,0.1218,0.1219]},{"header":{"parameterUnit":"m.s-1","parameterCategory":1,"la1":30.2991,"la2":30.254,"lo1":-89.0895,"lo2":-89.0444,"dy":0.0017,"dx":0.0017,"nx":28,"ny":28,"refTime":"2025-12-25T03:00:00:Z","depth":0,"parameterNumber":3,"parameterNumberName":"V-component_of_WINDS"},"data":[0,0,0,0,0,0,0,0,0,0,0,0,0,0,0,0,0,0,0,0,0,0,0,0,0,0,0,0,0,0,0,0,0,0,0,0,0,0,0,0,0,0,0,0,0,0,0,0,0,0,0,0,0,0,0,0,0,0,2.7809,2.781,0,2.7926,2.7927,2.7929,2.7935,2.7933,2.7932,2.7931,2.8049,2.8053,2.8058,0,0,0,0,0,0,0,0,0,0,0,0,0,2.759,2.7594,2.7809,2.781,2.7812,2.7926,2.7927,2.7929,2.7935,2.7933,2.7931,2.793,2.8048,2.8053,2.8058,0,0,0,0,0,0,0,0,0,0,0,0,0,2.7693,2.7595,2.7809,2.7829,2.7831,2.7925,2.7927,2.7929,2.7935,2.7933,2.7931,2.7929,2.8046,2.8052,2.8059,2.814,0,0,2.8079,2.8082,0,0,0,0,0,0,0,0,2.7688,2.7702,2.7824,2.7827,2.7831,2.7914,2.7893,2.8,2.7936,2.7896,2.7931,2.7928,2.8006,2.8015,2.8042,2.8146,2.8151,2.808,2.8084,2.8087,2.8088,0,0,0,0,0,0,0,2.768,2.7697,2.7855,2.7826,2.783,2.7831,2.7844,2.7914,2.7961,2.7899,2.79,2.7914,2.8007,2.8035,2.8045,2.8153,2.808,2.8085,2.8089,2.8092,2.8331,2.8334,0,0,0,0,0,0,2.767,2.7691,2.7851,2.7859,2.7753,2.7837,2.7851,2.7889,2.796,2.7969,2.7915,2.7913,2.8025,2.8037,2.8049,2.8151,2.8087,2.8093,2.8097,2.8329,2.8332,2.8335,0,0,0,0,0,0,2.7665,2.7684,2.7847,2.7775,2.7796,2.7843,2.7886,2.7892,2.7921,2.7972,2.798,2.7936,2.8024,2.8039,2.8118,2.8155,2.8096,2.8102,2.8326,2.833,2.8333,2.8355,0,0,0,0,0,0,2.7658,2.7682,2.7714,2.7776,2.78,2.7915,2.7888,2.7896,2.7932,2.7931,2.7994,2.8002,2.8023,2.8108,2.8125,2.8163,2.8107,2.8323,2.8328,2.8332,2.8351,2.8359,2.8365,0,0,0,0,0,2.7651,2.7715,2.7716,2.7735,2.784,2.7917,2.793,2.7954,2.7935,2.7968,2.8001,2.8,2.8148,2.8116,2.8135,2.8176,2.8321,2.8327,2.8332,2.8348,2.8357,2.8365,0,0,0,0,0,0,2.7656,2.7723,2.7725,2.7811,2.7858,2.7918,2.7959,2.7963,2.8016,2.8013,2.804,2.8054,2.8132,2.8161,2.8125,2.8259,2.8232,2.8242,2.8238,2.8247,2.8254,2.8247,2.8112,0,0,0,0,0,2.7667,2.7724,2.7779,2.7849,2.7873,2.7912,2.7946,2.796,2.801,2.803,2.8069,2.8117,2.8175,2.8212,2.8267,2.8354,2.8369,2.8391,2.8398,2.8404,2.8413,2.8462,2.8474,2.8352,2.8352,2.8352,0,0,2.769,2.7734,2.7768,2.7852,2.789,2.7949,2.7929,2.7991,2.8035,2.804,2.8118,2.8147,2.8202,2.8286,2.8325,2.8313,2.8449,2.8411,2.8415,2.8421,2.8469,2.8481,2.8491,2.8356,2.8355,2.8355,0,0,2.7764,2.7802,2.7866,2.7905,2.7963,2.7989,2.8004,2.8063,2.8084,2.8162,2.8167,2.8219,2.8316,2.8357,2.839,2.8478,2.848,2.8495,2.8533,2.8581,2.8591,2.8599,2.8633,2.8645,2.8503,2.8503,2.8503,0,2.7786,2.7875,2.7898,2.7961,2.7998,2.8005,2.8071,2.8107,2.818,2.8205,2.819,2.8314,2.8352,2.8446,2.8468,2.8493,2.8512,2.8489,2.8587,2.8596,2.8605,2.8638,2.865,2.8504,2.8504,2.8504,2.8504,0,2.7901,2.7962,2.8006,2.8078,2.812,2.8183,2.8216,2.8255,2.8265,2.8292,2.8372,2.8417,2.8483,2.8505,2.8515,2.8601,2.8592,2.8582,2.8556,2.8618,2.8649,2.8662,2.8507,2.8506,2.8506,2.8505,0,0,2.7983,2.8067,2.8083,2.8116,2.8181,2.8229,2.8292,2.8357,2.8391,2.844,2.8496,2.8578,2.857,2.8607,2.8621,2.8663,2.8733,2.8648,2.865,2.8665,2.8833,2.8842,2.8856,2.8733,2.8736,2.8738,2.8829,0,2.8066,2.8181,2.8204,2.8304,2.8362,2.8368,2.8424,2.8469,2.8496,2.8548,2.8577,2.8636,2.8619,2.8642,2.8683,2.8716,2.8768,2.8709,2.8786,2.8789,2.8776,2.8872,2.8883,2.8967,2.8841,2.8843,2.8845,0,2.8179,2.8233,2.8339,2.8397,2.8422,2.8472,2.8534,2.8583,2.8635,2.8651,2.8693,2.8703,2.8769,2.8738,2.8831,2.8791,2.8823,2.8843,2.8847,2.8858,2.8823,2.8888,2.8994,2.9008,2.8863,2.8862,2.8861,0,2.8233,2.8331,2.8408,2.8435,2.8504,2.854,2.857,2.8619,2.8657,2.871,2.8735,2.8795,2.8828,2.8874,2.89,2.8874,2.8991,2.8961,2.9008,2.9007,2.9035,2.9033,2.915,2.905,2.905,2.905,2.905,0,2.8325,2.839,2.8433,2.8481,2.8554,2.8578,2.865,2.8679,2.8723,2.8777,2.8784,2.8834,2.8864,2.8918,2.8937,2.9013,2.9027,2.9042,2.9048,2.9044,2.9042,2.9068,2.9064,2.9053,2.9053,2.9052,2.9051,0,2.8399,2.8429,2.8514,2.8572,2.8588,2.864,2.8689,2.8736,2.8761,2.8829,2.8846,2.8886,2.895,2.898,2.9058,2.9071,2.9158,2.9157,2.9141,2.9144,2.919,2.9186,2.9329,2.935,2.9234,2.9235,2.9236,0,2.8457,2.8508,2.8572,2.8608,2.864,2.8698,2.8737,2.8762,2.8802,2.8865,2.8904,2.8968,2.9021,2.9123,2.9159,2.922,2.9222,2.9268,2.9232,2.9227,2.9227,2.9225,2.9231,2.9276,2.9277,2.9278,2.9279,0,2.8559,2.8572,2.8628,2.869,2.8736,2.8785,2.8834,2.8863,2.8895,2.894,2.9006,2.9047,2.9128,2.9192,2.9255,2.9285,2.9289,2.929,2.9304,2.9302,2.9292,2.9301,2.9163,2.9287,2.9286,2.9286,2.9285,2.9285,2.8629,2.8675,2.8728,2.879,2.8829,2.8874,2.8921,2.8953,2.9008,2.9077,2.9087,2.9158,2.9208,2.9293,2.9326,2.9381,2.937,2.939,2.9396,2.9402,2.9406,2.928,2.9392,2.9392,2.9392,2.9391,2.9391,0,2.8734,2.8768,2.8825,2.8893,2.8942,2.894,2.8993,2.9034,2.9097,2.9143,2.9196,2.9272,2.9334,2.9374,2.9437,2.9474,2.9477,2.949,2.9489,2.9497,2.9411,2.9393,2.9487,2.9487,2.9487,2.9487,2.9487,2.9487,2.8795,2.8874,2.8892,2.899,2.9023,2.9093,2.9124,2.9166,2.9204,2.9289,2.9341,2.9366,2.9411,2.9477,2.9534,2.9544,2.9568,2.9582,2.9593,2.9512,2.9502,2.9493,2.9477,2.9587,2.9587,2.9674,2.9675,2.9676]}]]